This is the latest recevied weather packets stored in our database for station/object IZ1UQG-2. If no packets are shown the sender has not sent any weather packets the latest 10 day(s).
| Time | Temp. | Humidity | Pressure | Rain* | Wind** | Luminosity | Snow |
|---|---|---|---|---|---|---|---|
| 1777229103 | 20.56° C | 53% | 1014.4 hPa | 0 mm | - | 0 W/m² | - |
| 1777228626 | 20.56° C | 53% | 1014.2 hPa | 0 mm | - | 0 W/m² | - |
| 1777228323 | 21.11° C | 52% | 1014 hPa | 0 mm | - | 0 W/m² | - |
| 1777227496 | 21.11° C | 53% | 1013.9 hPa | 0 mm | - | 7 W/m² | - |
| 1777227363 | 21.11° C | 53% | 1013.8 hPa | 0 mm | - | 7 W/m² | - |
| 1777227063 | 21.67° C | 51% | 1013.7 hPa | 0 mm | - | 9 W/m² | - |
| 1777226887 | 22.22° C | 50% | 1013.7 hPa | 0 mm | - | 11 W/m² | - |
| 1777226104 | 22.78° C | 49% | 1013.6 hPa | 0 mm | - | 16 W/m² | - |
| 1777225749 | 22.78° C | 46% | 1013.5 hPa | 0 mm | - | 18 W/m² | - |
| 1777225574 | 23.33° C | 45% | 1013.4 hPa | 0 mm | - | 19 W/m² | - |
| 1777225443 | 23.33° C | 45% | 1013.4 hPa | 0 mm | - | 19 W/m² | - |
| 1777225383 | 23.33° C | 45% | 1013.4 hPa | 0 mm | - | 19 W/m² | - |
| 1777225323 | 23.33° C | 45% | 1013.5 hPa | 0 mm | - | 21 W/m² | - |
| 1777225023 | 23.33° C | 45% | 1013.4 hPa | 0 mm | - | 21 W/m² | - |
| 1777224903 | 23.33° C | 45% | 1013.4 hPa | 0 mm | - | 23 W/m² | - |
| 1777224304 | 23.89° C | 43% | 1013.4 hPa | 0 mm | - | 26 W/m² | - |
| 1777224063 | 23.89° C | 43% | 1013.2 hPa | 0 mm | - | 28 W/m² | - |
| 1777223464 | 23.89° C | 44% | 1013.2 hPa | 0 mm | - | 33 W/m² | - |
| 1777223284 | 23.89° C | 43% | 1013.2 hPa | 0 mm | - | 35 W/m² | - |
| 1777222984 | 23.89° C | 44% | 1013.2 hPa | 0 mm | - | 39 W/m² | - |
| 1777222323 | 23.89° C | 44% | 1013.2 hPa | 0 mm | - | 46 W/m² | - |
| 1777221303 | 23.89° C | 44% | 1013.2 hPa | 0 mm | - | 58 W/m² | - |
| 1777221243 | 23.89° C | 44% | 1013.3 hPa | 0 mm | - | 58 W/m² | - |
| 1777220823 | 23.89° C | 43% | 1013.2 hPa | 0 mm | - | 69 W/m² | - |
| 1777220763 | 24.44° C | 44% | 1013.2 hPa | 0 mm | - | 70 W/m² | - |
* Rain latest hour (hover to see other rain measurements)
** Current wind speed in m/s (hover to see current wind gust speed)